Location: Chenereilles
(45.4866°N, 4.0790°E)
Time: 15:30:46
(UTC+00:00)

Daily predictions for brighter satellites

Satellite Brightness Start Highest point End
(mag) Time Altitude Azimuth Time Altitude Azimuth Time Altitude Azimuth
USA 215 4.0 16:35:59 10° ENE 16:41:49 36° NNE 16:47:38 10° NW
Cosmos 1725 Rocket 4.1 16:35:47 10° N 16:42:06 66° E 16:48:22 10° SSE
Envisat 3.9 16:39:09 10° ESE 16:43:22 27° ENE 16:47:37 10° N
CZ-4B R/B 3.8 16:42:21 10° NNW 16:45:02 23° WNW 16:47:44 10° WSW
Cosmos 1892 3.9 16:42:06 10° NNW 16:45:45 46° W 16:49:21 10° SSW
Cosmos 2016 Rocket 4.1 16:41:34 10° N 16:48:00 89° E 16:54:22 10° S
Aureole 2 Rocket 3.4 16:45:58 10° SW 16:49:10 47° WNW 16:52:32 10° N
ATLAS 5 CENTAUR R/B 3.1 16:47:37 10° NNW 16:52:36 32° NE 16:58:12 10° E
Cosmos 1408 Rocket 3.7 16:49:10 10° N 16:53:35 82° W 16:58:01 10° S
Cosmos 1500 Rocket 3.7 16:53:44 10° N 16:58:03 51° ENE 17:02:17 10° SSE
CZ-4 R/B 2.7 16:56:15 10° ESE 16:59:18 20° ENE 17:02:20 10° NNE
Cosmos 1340 Rocket 3.2 16:56:08 10° SSW 17:00:08 70° WNW 17:04:12 10° N
Cosmos 1408 3.5 17:02:52 10° NNW 17:06:24 51° W 17:09:53 10° S
COSMO-SKYMED 1 3.6 17:04:56 10° NE 17:08:34 25° E 17:12:11 10° SSE
Cosmos 1869 4.2 17:07:02 10° SSE 17:10:23 27° E 17:13:45 10° NNE
SeaSat 1 2.4 17:05:36 10° SE 17:10:29 70° ENE 17:15:25 10° NNW
Geosat 4.0 17:07:25 10° NNE 17:12:28 71° ESE 17:17:29 10° SSW
Cosmos 1607 4.3 17:06:45 10° NNW 17:12:39 44° NE 17:18:36 10° ESE
Cosmos 1437 2.9 17:09:38 10° NNW 17:12:43 70° W 17:15:45 10° S
Cosmos 1867 3.6 17:11:27 10° SSW 17:16:53 73° ESE 17:22:21 10° NE
Cosmos 1825 3.0 17:13:58 10° NNW 17:17:41 54° W 17:21:22 10° S
BREEZE-M DEB (TANK) 4.3 17:15:20 10° SW 17:19:14 64° SE 17:30:37 13° ENE
Sich 1 3.8 17:18:34 10° N 17:22:24 30° ENE 17:26:15 10° SE
Cosmos 2219 3.2 17:17:15 10° NNW 17:22:49 61° ENE 17:28:22 10° SE
NOAA 12 4.1 17:17:54 10° SSE 17:23:12 73° ENE 17:28:33 10° N
GEOS 3 Rocket 3.9 17:18:29 10° NE 17:23:40 68° NW 17:28:53 10° SW
Ariane Rocket 4.3 17:25:09 17° E 17:26:31 18° ENE 17:29:55 10° NNE
Cosmos 1656 4.4 17:21:49 10° SSE 17:26:36 30° ESE 17:30:21 15° NE
Cosmos 2369 Rocket 4.5 17:25:59 10° W 17:29:45 18° NW 17:33:30 10° N
Cosmos 2084 3.4 17:27:26 10° NNW 17:31:44 60° NE 17:35:49 10° SE
CZ-3B R/B 4.1 17:30:57 10° WNW 17:32:58 24° NNW 17:34:42 16° NNE
FengYun 1-2 T 4.2 17:29:56 10° SSE 17:35:21 59° ENE 17:40:46 10° N
Okean-O 2.7 17:31:52 10° S 17:36:18 80° WSW 17:40:45 10° NNW
Meteor 2-2 Rocket 4.2 17:32:30 10° S 17:38:22 74° E 17:44:10 10° NNE
Cosmos 2344 4.0 17:31:12 10° SW 17:38:37 62° NW 17:46:57 10° NE
YAOGAN 1 3.0 17:34:47 10° SE 17:38:48 39° ENE 17:42:51 10° N
Cosmos 773 Rocket 3.9 17:34:06 10° SSW 17:39:13 72° ESE 17:44:25 10° NNE
NOSS 7 (D) 4.4 17:39:12 10° SW 17:42:08 57° NW 17:43:33 25° NNE
ERBS 4.4 17:41:54 10° SSE 17:42:58 13° SE 17:42:58 13° SE
CSL-04 Rocket 3.8 17:38:37 10° SE 17:43:47 50° ENE 17:48:55 10° N
Cosmos 2227 Rocket 2.2 17:41:08 10° NNW 17:46:46 59° ENE 17:52:20 10° SE
Cosmos 2297 Rocket 2.1 17:41:47 10° NNW 17:47:26 64° ENE 17:53:02 10° SE
Cosmos 1538 Rocket 3.9 17:44:27 10° S 17:49:39 68° ESE 17:54:54 10° NNE
Cosmos 2221 3.5 17:45:34 10° SSW 17:49:44 49° WNW 17:53:58 10° N
Cosmos 1633 2.9 17:47:35 10° N 17:51:06 42° ENE 17:52:46 25° SE
TELKOM 3 3.9 17:50:14 10° WNW 17:51:43 35° NW 17:51:43 35° NW
NOSS 8 (A) 4.1 17:49:10 10° SW 17:52:24 86° NW 17:53:19 42° NE
SKYMED 2 3.4 17:52:31 10° NNE 17:56:54 81° ESE 18:01:14 10° S
Cosmos 1862 3.6 17:53:24 10° N 17:57:12 42° ENE 17:57:45 39° E
Cosmos 2369 4.3 17:54:09 10° S 17:59:12 35° ESE 18:00:29 31° ENE
USA 116 4.1 17:56:23 14° NNE 18:00:05 57° E 18:04:55 10° S
PSLV R/B 4.3 17:57:55 10° SW 17:59:47 24° S 17:59:47 24° S
YAOGAN 6 2.5 17:59:31 10° S 18:03:01 79° W 18:06:32 10° NNW
Cosmos 1356 Rocket 3.3 18:04:27 10° S 18:08:34 86° WNW 18:12:39 11° N
Cosmos 1805 Rocket 4.1 18:06:36 10° NNW 18:10:53 60° W 18:15:10 10° S
Lacrosse 4 Rocket 2.6 18:07:47 10° S 18:10:04 26° SSE 18:10:04 26° SSE
Cosmos 2082 3.7 18:06:43 10° NNW 18:12:17 59° ENE 18:14:50 31° SE
Genesis I 3.9 18:08:40 10° SW 18:12:36 51° NW 18:14:20 29° NNE
Cosmos 2263 Rocket 4.0 18:11:25 10° N 18:13:30 15° NNE 18:13:30 15° NNE
Cosmos 1464 Rocket 3.9 18:10:51 10° N 18:17:04 87° E 18:23:12 10° S
BREEZE-M DEB (TANK) 2.9 18:12:37 10° SW 18:17:31 40° SSE 18:17:34 40° SSE
Cosmos 1891 Rocket 4.5 18:11:31 10° N 18:17:58 88° E 18:24:14 10° S
Cosmos 2278 4.3 18:14:59 10° S 18:19:26 37° SE 18:19:26 37° SE
Envisat 4.2 18:17:24 10° SSW 18:22:12 42° W 18:27:01 10° NNW
USA 215 3.2 18:21:35 38° E 18:24:11 66° NNE 18:30:41 10° NW
Cosmos 1697 Rocket 2.7 18:21:00 10° S 18:26:29 53° ESE 18:26:55 52° E
BREEZE-M DEB (TANK) 2.8 18:21:49 10° W 18:28:09 48° N 18:28:16 48° N
USA 229 DEB 3.7 18:27:08 10° SW 18:33:42 77° NW 18:37:27 29° NNE
USA 229 3.7 18:27:15 10° SW 18:33:49 78° NW 18:37:30 30° NNE
CZ-4 R/B 2.7 18:30:06 10° S 18:34:04 41° W 18:38:00 10° NNW
Cosmos 724 4.4 18:30:35 10° NNW 18:36:09 50° NE 18:36:09 50° NE
ATLAS 5 CENTAUR R/B 2.7 18:31:54 10° NW 18:37:42 68° SW 18:42:11 21° SSE
NOSS 3-1 (A) 3.1 18:33:22 10° SSW 18:38:50 74° ESE 18:39:52 60° ENE
NOSS 3-1 (C) 3.4 18:35:23 10° SW 18:40:56 74° NW 18:43:21 38° NNE
Cosmos 1633 Rocket 3.4 18:38:14 10° NNW 18:42:36 64° W 18:45:35 20° S
COSMO-SKYMED 1 4.2 18:40:52 10° N 18:44:45 33° WNW 18:48:39 10° SW
Cosmos 1939 Rocket 4.2 18:55:01 36° NW 18:55:01 36° NW 18:57:41 10° NNW
Cosmos 1680 Rocket 3.9 18:50:52 10° SSW 18:54:47 53° SSW 18:54:47 53° SSW
H-2A R/B 4.2 19:02:21 16° N 19:02:21 16° N 19:03:23 10° N
Ariane Rocket 3.3 19:05:22 65° WNW 19:05:22 65° WNW 19:10:02 10° NNW
Cosmos 1980 Rocket 4.1 19:23:25 10° SSW 19:24:56 19° SSW 19:24:56 19° SSW
Cosmos 2227 Rocket 4.3 19:26:03 10° NW 19:30:20 23° W 19:34:38 10° SSW
CENTAUR R/B 4.4 19:24:26 10° NNW 19:29:38 24° NNE 19:29:38 24° NNE
Cosmos 2297 Rocket 4.5 19:26:53 10° NW 19:30:56 21° W 19:35:00 10° SSW
Cosmos 2263 Rocket 4.5 19:54:10 10° NNW 19:55:12 16° NNW 19:55:12 16° NNW
USA 215 4.4 20:08:57 38° W 20:08:57 38° W 20:13:37 10° WNW
